W8DRH-13 Weather Reports


time (UTC)temp
C
wind
direction
speed
KPH
gust
KPH
rain 1hr
cm
rain 24hr
cm
rain mn
cm
humidity
%
barometer
mb
20260506231839 11 283 4.8 4.8 0.00 0.91 0.91 62 1010.8
20260506231337 11 287 11.3 12.9 0.00 0.91 0.91 59 1010.9
20260506230834 11 296 6.4 6.4 0.00 0.91 0.91 61 1011.1
20260506230331 11 302 6.4 6.4 0.00 0.91 0.91 60 1011.1
20260506225827 11 280 9.7 11.3 0.00 0.91 0.91 59 1011.0
20260506225324 11 275 8.0 11.3 0.00 0.91 0.91 60 1011.3
20260506224821 11 282 3.2 4.8 0.00 0.91 0.91 60 1010.9
20260506224319 11 289 11.3 12.9 0.00 0.91 0.91 59 1010.8
20260506223815 11 309 14.5 17.7 0.00 0.91 0.91 58 1010.8
20260506223309 11 289 12.9 12.9 0.00 0.91 0.91 58 1010.7
20260506222807 11 284 6.4 6.4 0.00 0.91 0.91 59 1010.6
20260506222305 11 303 6.4 6.4 0.00 0.91 0.91 61 1010.7
20260506221801 11 336 6.4 11.3 0.00 0.91 0.91 58 1010.9
20260506221258 11 310 6.4 6.4 0.00 0.91 0.91 62 1010.8
20260506220755 12 289 9.7 12.9 0.00 0.91 0.91 57 1010.9
20260506220250 12 285 9.7 12.9 0.00 0.91 0.91 57 1010.7
20260506215747 12 290 4.8 4.8 0.00 0.91 0.91 61 1010.6
20260506215243 12 289 8.0 11.3 0.00 0.91 0.91 59 1010.6
20260506214739 12 300 3.2 6.4 0.00 0.91 0.91 60 1010.4
20260506214236 12 297 4.8 4.8 0.00 0.91 0.91 60 1010.4
20260506213734 11 267 6.4 9.7 0.00 0.91 0.91 58 1010.2
20260506213231 11 270 9.7 12.9 0.00 0.91 0.91 57 1010.4
20260506212729 11 277 8.0 11.3 0.00 0.91 0.91 57 1010.5
20260506212224 11 302 6.4 6.4 0.00 0.91 0.91 59 1010.4
20260506211719 11 286 9.7 12.9 0.00 0.91 0.91 58 1010.4
20260506211217 11 301 9.7 11.3 0.00 0.91 0.91 59 1010.4
20260506210713 11 9 3.2 3.2 0.00 0.91 0.91 59 1010.3
20260506210210 12 34 3.2 3.2 0.00 0.91 0.91 64 1010.3
20260506205707 12 59 1.6 1.6 0.00 0.91 0.91 62 1010.0
20260506205203 12 346 4.8 4.8 0.00 0.91 0.91 60 1010.1
20260506204700 12 55 3.2 3.2 0.00 0.91 0.91 63 1009.8
20260506204156 12 70 1.6 1.6 0.00 0.91 0.91 62 1010.2
20260506203655 12 56 3.2 4.8 0.00 0.91 0.91 59 1010.0
20260506203152 11 19 0.0 1.6 0.00 0.91 0.91 60 1010.1
20260506202649 12 4 4.8 6.4 0.00 0.91 0.91 58 1010.0
20260506202145 12 306 6.4 6.4 0.00 0.91 0.91 61 1009.9
20260506201637 12 359 6.4 6.4 0.00 0.91 0.91 59 1010.1
20260506201133 12 57 3.2 3.2 0.00 0.91 0.91 61 1010.2
20260506200630 12 7 3.2 4.8 0.00 0.91 0.91 59 1010.4
20260506200127 12 36 3.2 3.2 0.00 0.91 0.91 60 1010.3
20260506195623 12 306 9.7 14.5 0.00 0.91 0.91 58 1010.2
20260506195120 12 316 9.7 12.9 0.00 0.91 0.91 57 1010.2
20260506194617 12 303 4.8 4.8 0.00 0.91 0.91 58 1010.2
20260506194113 12 29 3.2 3.2 0.00 0.91 0.91 58 1010.3
20260506193611 12 339 3.2 4.8 0.00 0.91 0.91 57 1010.2
20260506193108 12 318 8.0 9.7 0.00 0.91 0.91 59 1009.9
20260506192604 12 352 4.8 6.4 0.00 0.91 0.91 58 1009.9
20260506192055 12 56 1.6 1.6 0.00 0.91 0.91 61 1010.0
20260506191552 12 357 3.2 4.8 0.00 0.91 0.91 57 1010.1
20260506191047 12 11 1.6 1.6 0.00 0.91 0.91 60 1010.2
20260506190544 12 323 3.2 4.8 0.00 0.91 0.91 60 1010.0
20260506190036 12 339 4.8 6.4 0.00 0.91 0.91 61 1010.0
20260506185534 12 111 0.0 1.6 0.00 0.91 0.91 62 1010.0
20260506185030 12 305 6.4 9.7 0.00 0.91 0.91 60 1009.9
20260506184527 12 319 6.4 6.4 0.00 0.91 0.91 61 1010.1
20260506184025 12 79 1.6 1.6 0.00 0.91 0.91 65 1010.0
20260506183520 12 72 0.0 0.0 0.00 0.91 0.91 63 1010.3
20260506183017 12 67 1.6 1.6 0.00 0.91 0.91 66 1010.4
20260506182514 12 18 1.6 1.6 0.00 0.91 0.91 63 1010.4
20260506182011 12 314 4.8 4.8 0.00 0.91 0.91 61 1010.5
20260506181509 12 316 8.0 12.9 0.00 0.91 0.91 58 1010.4
20260506181006 12 37 3.2 3.2 0.00 0.91 0.91 65 1010.3
20260506180502 12 327 4.8 4.8 0.00 0.91 0.91 58 1010.2
20260506175959 13 331 4.8 6.4 0.00 0.91 0.91 61 1009.9
20260506175455 13 319 4.8 4.8 0.00 0.91 0.91 57 1009.9
20260506174946 13 329 8.0 9.7 0.00 0.91 0.91 62 1009.8
20260506174445 13 8 3.2 4.8 0.00 0.91 0.91 65 1010.1
20260506173941 13 332 3.2 4.8 0.00 0.91 0.91 65 1010.0
20260506173438 13 19 3.2 3.2 0.00 0.91 0.91 66 1010.0
20260506172935 13 328 6.4 6.4 0.00 0.91 0.91 61 1009.9
20260506172432 13 325 9.7 11.3 0.00 0.91 0.91 63 1010.4
20260506171928 13 29 1.6 3.2 0.00 0.91 0.91 68 1010.1
20260506171426 13 303 6.4 6.4 0.00 0.91 0.91 66 1010.1
20260506170918 13 348 3.2 3.2 0.00 0.91 0.91 66 1009.9
20260506170413 12 14 3.2 4.8 0.00 0.91 0.91 69 1009.9
20260506165907 12 0 1.6 3.2 0.00 0.91 0.91 67 1010.0
20260506165405 12 329 4.8 6.4 0.00 0.91 0.91 66 1010.0
20260506164900 13 11 3.2 4.8 0.00 0.91 0.91 69 1009.9
20260506164357 13 11 3.2 4.8 0.00 0.91 0.91 69 1009.7
20260506163850 13 51 1.6 1.6 0.00 0.91 0.91 69 1009.8
20260506163344 13 357 3.2 4.8 0.00 0.91 0.91 70 1009.9
20260506162839 12 357 8.0 11.3 0.00 0.91 0.91 66 1009.8
20260506162337 12 288 6.4 6.4 0.00 0.91 0.91 67 1010.1
20260506161829 12 308 9.7 9.7 0.00 0.91 0.91 69 1010.3
20260506161326 12 319 3.2 4.8 0.00 0.91 0.91 69 1010.2
20260506160824 12 310 3.2 3.2 0.00 0.91 0.91 70 1010.2
20260506160320 12 25 1.6 1.6 0.00 0.91 0.91 71 1010.3
20260506155818 12 357 4.8 4.8 0.00 0.91 0.91 71 1009.9
20260506155315 12 1 3.2 4.8 0.00 0.91 0.91 72 1009.7
20260506153428 11 0 3.2 4.8 0.00 0.91 0.91 74 1009.5
20260506152925 11 31 0.0 0.0 0.00 0.91 0.91 73 1009.5
20260506152421 11 22 0.0 0.0 0.00 0.91 0.91 75 1009.5
20260506151921 11 26 0.0 0.0 0.00 0.91 0.91 75 1009.4
20260506151417 11 0 4.8 4.8 0.00 0.91 0.91 73 1009.8
20260506150915 11 277 4.8 9.7 0.00 0.91 0.91 75 1009.7
20260506150410 10 302 3.2 4.8 0.00 0.91 0.91 76 1009.4
20260506145908 10 313 0.0 0.0 0.00 0.91 0.91 76 1009.5
20260506145403 11 33 1.6 3.2 0.00 0.91 0.91 78 1009.3
20260506144902 10 341 3.2 4.8 0.00 0.91 0.91 76 1009.5
20260506144357 10 354 3.2 6.4 0.00 0.91 0.91 79 1009.4
20260506143856 10 354 3.2 6.4 0.00 0.91 0.91 79 1009.2
20260506143353 10 354 3.2 6.4 0.00 0.91 0.91 79 1009.1
20260506142851 10 80 1.6 3.2 0.00 0.91 0.91 79 1009.0
20260506142349 10 335 3.2 4.8 0.00 0.91 0.91 79 1009.0
20260506141847 10 41 0.0 1.6 0.00 0.91 0.91 81 1008.8
20260506141345 9 328 3.2 6.4 0.00 0.91 0.91 80 1008.5
20260506140843 9 15 1.6 3.2 0.00 0.91 0.91 82 1008.5
20260506140339 8 48 1.6 4.8 0.00 0.91 0.91 81 1008.7
20260506135836 8 1 4.8 4.8 0.00 0.91 0.91 81 1008.8
20260506135333 8 35 0.0 1.6 0.00 0.91 0.91 83 1008.5
20260506134829 8 12 3.2 4.8 0.00 0.91 0.91 84 1008.7
20260506134326 7 2 0.0 0.0 0.00 0.91 0.91 87 1008.6
20260506133823 7 359 1.6 3.2 0.00 0.91 0.91 88 1008.9
20260506133319 7 313 4.8 4.8 0.00 0.91 0.91 93 1008.9
20260506132816 7 1 1.6 1.6 0.00 0.91 0.91 96 1008.9
20260506132313 7 344 4.8 4.8 0.00 0.91 0.91 97 1008.8
20260506131811 7 358 3.2 3.2 0.00 0.91 0.91 98 1008.9
20260506131307 6 34 0.0 0.0 0.00 0.91 0.91 99 1008.9
20260506130804 6 33 0.0 0.0 0.00 0.91 0.91 99 1008.6
20260506130301 6 58 0.0 0.0 0.00 0.91 0.91 99 1008.6
20260506125759 6 65 0.0 0.0 0.00 0.91 0.91 99 1008.3
20260506125257 6 34 0.0 0.0 0.00 0.91 0.91 99 1008.4
20260506124755 6 91 1.6 1.6 0.00 0.91 0.91 99 1008.3
20260506124252 6 41 0.0 1.6 0.00 0.91 0.91 99 1008.2
20260506123749 6 37 0.0 1.6 0.00 0.91 0.91 99 1008.2
20260506123248 6 37 0.0 1.6 0.00 0.91 0.91 99 1008.3
20260506122744 6 19 1.6 1.6 0.00 0.91 0.91 99 1007.9
20260506122241 6 64 0.0 0.0 0.00 0.91 0.91 99 1008.1
20260506121740 6 56 0.0 0.0 0.00 0.91 0.91 99 1007.9
20260506121236 6 37 1.6 1.6 0.00 0.91 0.91 99 1007.8
20260506120733 6 12 1.6 1.6 0.00 0.91 0.91 99 1007.8
20260506120231 6 95 0.0 0.0 0.00 0.91 0.91 99 1007.5
20260506115729 6 90 0.0 1.6 0.00 0.91 0.91 99 1007.4
20260506115227 6 76 0.0 1.6 0.00 0.91 0.91 99 1007.2
20260506114724 5 71 0.0 0.0 0.00 0.91 0.91 99 1007.1
20260506114222 5 67 0.0 1.6 0.00 0.91 0.91 99 1006.8
20260506113720 5 66 0.0 0.0 0.00 0.91 0.91 99 1007.0
20260506113217 5 37 0.0 0.0 0.00 0.91 0.91 99 1006.8
20260506112713 5 69 1.6 3.2 0.00 0.91 0.91 99 1006.8
20260506112211 5 58 0.0 1.6 0.00 0.91 0.91 99 1006.7
20260506111708 5 66 0.0 1.6 0.00 0.91 0.91 99 1006.7
20260506111207 5 44 4.8 6.4 0.00 0.91 0.91 99 1006.9
20260506110703 5 40 3.2 3.2 0.00 0.91 0.91 99 1006.9
20260506110201 5 87 1.6 1.6 0.00 0.91 0.91 99 1007.1
20260506105657 5 44 1.6 3.2 0.00 0.91 0.91 99 1007.2
20260506105154 5 60 0.0 1.6 0.00 0.91 0.91 99 1007.2
20260506104652 5 51 0.0 1.6 0.00 0.91 0.91 99 1006.6
20260506104150 5 353 0.0 1.6 0.00 0.91 0.91 99 1006.3
20260506103647 5 52 3.2 3.2 0.00 0.91 0.91 99 1006.2
20260506103143 5 38 4.8 4.8 0.00 0.91 0.91 99 1006.0
20260506102642 5 73 1.6 3.2 0.00 0.91 0.91 99 1006.3
20260506102139 5 52 3.2 3.2 0.00 0.91 0.91 99 1006.6
20260506101635 5 89 0.0 0.0 0.00 0.91 0.91 99 1006.5
20260506101132 6 48 0.0 1.6 0.00 0.91 0.91 99 1006.4
20260506100631 6 56 1.6 3.2 0.00 0.91 0.91 99 1006.1
20260506100128 6 49 3.2 4.8 0.00 0.91 0.91 99 1006.0
20260506095627 6 83 0.0 1.6 0.00 0.91 0.91 99 1005.8
20260506095123 7 28 0.0 1.6 0.00 0.91 0.91 99 1005.6
20260506094621 7 45 1.6 1.6 0.00 0.91 0.91 99 1005.6
20260506094118 7 69 0.0 0.0 0.00 0.91 0.91 99 1005.9
20260506093617 7 61 0.0 1.6 0.00 0.91 0.91 99 1005.8
20260506093114 7 63 0.0 0.0 0.00 0.91 0.91 99 1005.6
20260506092612 7 35 3.2 4.8 0.00 0.91 0.91 99 1005.4
20260506092108 7 49 6.4 6.4 0.00 0.91 0.91 99 1005.2
20260506091606 6 23 3.2 4.8 0.00 0.91 0.91 99 1004.9
20260506091103 6 74 3.2 4.8 0.00 0.91 0.91 99 1004.7
20260506090601 6 32 4.8 4.8 0.00 0.91 0.91 99 1005.1
20260506090057 6 48 3.2 4.8 0.00 0.91 0.91 99 1005.2
20260506085554 6 43 3.2 4.8 0.00 0.91 0.91 99 1005.8
20260506085050 6 72 1.6 1.6 0.18 0.91 0.91 99 1006.1
20260506084547 6 22 1.6 1.6 0.18 0.91 0.91 99 1006.1
20260506084044 6 52 6.4 9.7 0.00 0.89 0.89 99 1006.0
20260506083541 6 33 4.8 4.8 0.13 0.89 0.89 99 1006.0
20260506083038 6 98 0.0 1.6 0.13 0.89 0.89 99 1005.8
20260506082535 6 57 1.6 1.6 0.00 0.86 0.86 99 1006.1
20260506082031 6 58 0.0 3.2 0.00 0.86 0.86 99 1006.0
20260506081529 6 77 0.0 1.6 0.00 0.86 0.86 99 1005.8
20260506081026 6 30 4.8 6.4 0.00 0.86 0.86 99 1005.7
20260506080524 6 29 8.0 9.7 0.00 0.86 0.86 99 1005.7
20260506073507 7 36 1.6 4.8 0.18 0.86 0.86 99 1005.6
20260506073004 7 61 4.8 6.4 0.13 0.84 0.84 99 1005.6
20260506072501 7 36 6.4 9.7 0.30 0.84 0.84 99 1005.9
20260506071959 7 3 4.8 6.4 0.43 0.84 0.84 99 1006.0
20260506071457 7 96 1.6 3.2 0.30 0.81 0.81 99 1005.8
20260506070954 7 81 0.0 0.0 0.30 0.76 0.76 99 1006.1
20260506070451 7 74 0.0 0.0 0.30 0.76 0.76 99 1005.9
20260506062428 7 78 0.0 0.0 0.61 0.58 0.58 99 1005.5
20260506061924 7 31 0.0 0.0 0.48 0.53 0.53 99 1005.3
20260506061421 7 92 0.0 0.0 0.30 0.48 0.48 99 1005.5
20260506060919 7 48 0.0 0.0 0.30 0.46 0.46 99 1005.5
20260506060417 7 75 0.0 0.0 0.48 0.43 0.43 99 1005.8
20260506051348 7 67 0.0 1.6 0.00 0.20 0.20 99 1005.6
20260506050846 7 37 4.8 4.8 0.18 0.20 0.20 99 1005.6
20260506050343 7 40 6.4 6.4 0.48 0.20 0.20 99 1006.0
20260506044833 7 65 0.0 0.0 0.18 0.10 0.10 99 1006.2
20260506044332 7 1 6.4 6.4 0.00 0.08 0.08 99 1006.2
20260506043828 7 78 0.0 0.0 0.13 0.08 0.08 99 1005.9
20260506043326 7 61 1.6 1.6 0.13 0.08 0.08 99 1006.0
20260506042824 7 52 0.0 0.0 0.13 0.08 0.08 99 1005.9
20260506042323 7 36 4.8 6.4 0.18 0.05 0.05 99 1005.8
20260506041821 7 39 3.2 3.2 0.18 0.05 0.05 99 1005.6
20260506041318 7 48 1.6 3.2 0.00 0.03 0.03 99 1005.5
20260506040815 7 16 0.0 3.2 0.13 0.03 0.03 99 1005.6
20260506040312 7 25 4.8 4.8 0.13 0.03 0.03 99 1005.6
20260506035808 7 25 9.7 12.9 0.00 2.87 2.87 99 1005.5
20260506035306 7 40 6.4 9.7 0.18 2.87 2.87 99 1005.7
20260506034803 7 53 1.6 1.6 0.18 2.87 2.87 99 1005.6
20260506034300 7 45 3.2 4.8 0.18 2.84 2.84 99 1005.6
20260506033757 7 60 3.2 3.2 0.18 2.84 2.84 98 1005.8
20260506033253 8 41 1.6 3.2 0.13 2.82 2.82 99 1005.8
20260506032750 8 46 4.8 4.8 0.30 2.82 2.82 98 1006.0
20260506032247 8 33 6.4 6.4 0.30 2.79 2.79 98 1005.8
20260506031744 8 43 1.6 1.6 0.30 2.77 2.77 98 1006.2
20260506031241 8 34 8.0 9.7 0.43 2.77 2.77 98 1006.2
20260506030739 8 31 8.0 11.3 0.48 2.74 2.74 98 1006.4
20260506030237 8 53 1.6 3.2 0.30 2.69 2.69 98 1006.6
20260506025733 8 71 0.0 0.0 0.30 2.67 2.67 98 1006.5
20260506025229 8 335 3.2 3.2 0.30 2.64 2.64 98 1006.5
20260506024721 8 72 0.0 0.0 0.13 2.62 2.62 98 1006.7
20260506024218 8 31 6.4 11.3 0.18 2.59 2.59 98 1006.9
20260506023714 8 49 6.4 9.7 0.30 2.59 2.59 98 1006.8
20260506023211 8 14 1.6 1.6 0.13 2.57 2.57 98 1006.9
20260506022708 8 70 0.0 0.0 0.18 2.54 2.54 98 1007.1
20260506022206 8 56 4.8 6.4 0.36 2.54 2.54 98 1006.9
20260506021704 8 89 0.0 1.6 0.48 2.51 2.51 98 1007.1
20260506021200 8 51 0.0 1.6 0.43 2.49 2.49 98 1007.0
20260506020657 8 75 1.6 3.2 0.43 2.44 2.44 98 1007.1
20260506020155 8 69 0.0 1.6 0.61 2.41 2.41 98 1006.5
20260506015652 9 62 1.6 3.2 0.79 2.36 2.36 98 1006.5
20260506015150 9 82 0.0 0.0 0.79 2.31 2.31 98 1006.4
20260506014647 9 98 1.6 1.6 0.48 2.24 2.24 98 1006.5
20260506014143 9 23 9.7 11.3 0.30 2.18 2.18 98 1006.3
20260506013641 9 123 0.0 0.0 0.43 2.16 2.16 98 1006.3
20260506013138 9 80 1.6 1.6 0.48 2.13 2.13 98 1006.2
20260506012633 9 328 3.2 3.2 0.30 2.08 2.08 98 1006.0
20260506012130 9 18 6.4 9.7 0.13 2.06 2.06 98 1005.7
20260506011628 9 25 6.4 12.9 0.18 2.03 2.03 98 1005.9
20260506011124 9 9 9.7 12.9 0.30 2.03 2.03 98 1005.8
20260506010623 9 66 0.0 1.6 0.30 2.01 2.01 98 1006.0
20260506010119 9 53 0.0 0.0 0.48 1.98 1.98 98 1006.0
20260506005616 9 80 3.2 4.8 0.48 1.96 1.96 98 1006.1
20260506005113 10 64 3.2 3.2 0.30 1.91 1.91 98 1006.0
20260506004610 10 60 6.4 9.7 0.43 1.88 1.88 98 1005.9
20260506004107 10 30 1.6 3.2 0.61 1.85 1.85 98 1005.8
20260506003603 10 104 0.0 1.6 0.79 1.80 1.80 98 1005.9
20260506003059 10 122 3.2 3.2 0.89 1.75 1.75 98 1005.9
20260506002555 10 35 3.2 4.8 1.07 1.70 1.70 98 1005.6
20260506002051 10 79 1.6 1.6 0.79 1.60 1.60 98 1005.4
20260506001548 10 353 4.8 4.8 0.71 1.55 1.55 98 1005.5
20260506001045 11 66 3.2 4.8 0.89 1.47 1.47 98 1005.4
20260506000542 11 53 1.6 1.6 0.71 1.40 1.40 98 1005.2
20260506000040 12 85 1.6 1.6 0.79 1.35 1.35 98 1005.3
20260505235537 12 69 3.2 3.2 0.66 1.27 1.27 98 1005.0
20260505235034 12 71 1.6 1.6 0.43 1.22 1.22 98 1004.8
20260505234531 12 94 1.6 1.6 0.30 1.17 1.17 98 1004.7
20260505234028 12 112 3.2 4.8 0.18 1.14 1.14 98 1004.5
20260505233525 12 68 0.0 0.0 0.00 1.12 1.12 97 1004.8
20260505233023 12 63 3.2 3.2 0.00 1.12 1.12 97 1004.6
20260505232521 12 88 3.2 3.2 0.00 1.12 1.12 97 1004.9